When you browse on this site, cookies collect data to enhance your experience and personalize the content and advertising you see.
Visit our Privacy Policy to learn more. By continuing to use the site, you agree to this use of cookies and data.
  • In Czech Republic
  • List of Countries
  • For 7 days
  • Water Temperature
  • Weather Map
  • Weather Widgets
  • user-avatar
    Login

    Hourly Weather Isenbaevo

    Today, 6 June, Saturday

    Time Temperature Precipitation Wind Pressure Humidity
    00:00 +15°C° 0 mm 4 mps 754 mmHg 79%
    01:00 +15°C° 0 mm 4 mps 753 mmHg 78%
    02:00 +14°C° 0 mm 4 mps 753 mmHg 77%
    03:00 +14°C° 0 mm 4 mps 753 mmHg 76%
    04:00 +14°C° 0 mm 3 mps 753 mmHg 78%
    05:00 +14°C° 0 mm 3 mps 753 mmHg 77%
    06:00 +14°C° 0 mm 4 mps 753 mmHg 75%
    07:00 +14°C° 0 mm 4 mps 753 mmHg 74%
    08:00 +15°C° 0 mm 4 mps 753 mmHg 73%
    09:00 +17°C° 0 mm 4 mps 753 mmHg 72%
    10:00 +18°C° 0 mm 4 mps 753 mmHg 71%
    11:00 +18°C° 0 mm 4 mps 753 mmHg 71%
    12:00 +17°C° 0 mm 5 mps 753 mmHg 71%
    13:00 +17°C° 0 mm 6 mps 753 mmHg 71%
    14:00 +16°C° 0.2 mm 5 mps 753 mmHg 76%
    15:00 +15°C° 0.2 mm 4 mps 753 mmHg 82%
    16:00 +13°C° 0.2 mm 4 mps 753 mmHg 87%
    17:00 +13°C° 0.3 mm 3 mps 753 mmHg 89%
    18:00 +13°C° 0.3 mm 3 mps 753 mmHg 92%
    19:00 +13°C° 0.3 mm 3 mps 752 mmHg 94%
    20:00 +13°C° 0 mm 3 mps 752 mmHg 94%
    21:00 +13°C° 0 mm 3 mps 752 mmHg 94%
    22:00 +13°C° 0 mm 3 mps 753 mmHg 94%
    23:00 +12°C° 0 mm 3 mps 752 mmHg 94%

    Tomorrow, 7 June, Sunday

    Time Temperature Precipitation Wind Pressure Humidity
    00:00 +12°C° 0 mm 3 mps 752 mmHg 94%
    01:00 +13°C° 0 mm 2 mps 752 mmHg 95%
    02:00 +12°C° 0.1 mm 2 mps 752 mmHg 95%
    03:00 +12°C° 0.1 mm 2 mps 752 mmHg 95%
    04:00 +12°C° 0.1 mm 2 mps 752 mmHg 95%
    05:00 +13°C° 0.2 mm 2 mps 752 mmHg 93%
    06:00 +14°C° 0.2 mm 2 mps 752 mmHg 92%
    07:00 +15°C° 0.2 mm 2 mps 752 mmHg 90%
    08:00 +17°C° 0.3 mm 3 mps 752 mmHg 86%
    09:00 +19°C° 0.3 mm 3 mps 752 mmHg 82%
    10:00 +20°C° 0.3 mm 3 mps 752 mmHg 77%
    11:00 +20°C° 1.3 mm 4 mps 752 mmHg 78%
    12:00 +20°C° 1.3 mm 4 mps 752 mmHg 78%
    13:00 +20°C° 1.3 mm 4 mps 753 mmHg 78%
    14:00 +20°C° 0.4 mm 4 mps 753 mmHg 77%
    15:00 +21°C° 0.4 mm 5 mps 753 mmHg 77%
    16:00 +21°C° 0.4 mm 6 mps 753 mmHg 76%
    17:00 +20°C° 0.5 mm 5 mps 753 mmHg 80%
    18:00 +19°C° 0.5 mm 4 mps 752 mmHg 84%
    19:00 +18°C° 0.5 mm 4 mps 752 mmHg 87%
    20:00 +17°C° 0 mm 4 mps 753 mmHg 89%
    21:00 +15°C° 0 mm 4 mps 753 mmHg 90%
    22:00 +15°C° 0 mm 4 mps 753 mmHg 91%
    23:00 +15°C° 0 mm 4 mps 753 mmHg 91%

    Day after tomorrow, 8 June, Monday

    Time Temperature Precipitation Wind Pressure Humidity
    00:00 +14°C° 0 mm 4 mps 753 mmHg 91%
    01:00 +14°C° 0 mm 4 mps 753 mmHg 91%
    02:00 +14°C° 0 mm 4 mps 754 mmHg 92%
    03:00 +14°C° 0 mm 4 mps 754 mmHg 93%
    04:00 +13°C° 0 mm 3 mps 754 mmHg 93%
    05:00 +14°C° 0 mm 3 mps 754 mmHg 91%
    06:00 +15°C° 0 mm 4 mps 755 mmHg 89%
    07:00 +17°C° 0 mm 4 mps 755 mmHg 86%
    08:00 +19°C° 0 mm 3 mps 755 mmHg 80%
    09:00 +20°C° 0 mm 3 mps 756 mmHg 73%
    10:00 +21°C° 0 mm 2 mps 756 mmHg 66%
    11:00 +22°C° 0 mm 3 mps 756 mmHg 64%
    12:00 +24°C° 0 mm 3 mps 756 mmHg 62%
    13:00 +25°C° 0 mm 3 mps 756 mmHg 60%
    14:00 +25°C° 0 mm 4 mps 756 mmHg 58%
    15:00 +26°C° 0 mm 4 mps 756 mmHg 57%
    16:00 +26°C° 0 mm 4 mps 756 mmHg 56%
    17:00 +25°C° 0 mm 4 mps 756 mmHg 60%
    18:00 +25°C° 0 mm 3 mps 756 mmHg 64%
    19:00 +24°C° 0 mm 2 mps 756 mmHg 68%
    20:00 +21°C° 0 mm 2 mps 757 mmHg 69%
    21:00 +20°C° 0 mm 2 mps 757 mmHg 70%
    22:00 +18°C° 0 mm 2 mps 757 mmHg 71%
    23:00 +18°C° 0 mm 2 mps 757 mmHg 71%

    9 June, Tuesday

    Time Temperature Precipitation Wind Pressure Humidity
    00:00 +17°C° 0 mm 2 mps 757 mmHg 71%
    01:00 +16°C° 0 mm 2 mps 758 mmHg 72%
    02:00 +16°C° 0 mm 2 mps 758 mmHg 72%
    03:00 +16°C° 0 mm 2 mps 758 mmHg 73%
    04:00 +15°C° 0 mm 2 mps 758 mmHg 74%
    05:00 +16°C° 0 mm 2 mps 759 mmHg 75%
    06:00 +18°C° 0 mm 2 mps 759 mmHg 75%
    07:00 +19°C° 0 mm 3 mps 759 mmHg 76%
    08:00 +20°C° 0 mm 3 mps 759 mmHg 72%
    09:00 +22°C° 0 mm 3 mps 759 mmHg 69%
    10:00 +25°C° 0 mm 3 mps 759 mmHg 65%
    11:00 +26°C° 0 mm 3 mps 759 mmHg 60%
    12:00 +27°C° 0 mm 3 mps 759 mmHg 56%
    13:00 +28°C° 0 mm 3 mps 759 mmHg 52%
    14:00 +28°C° 0 mm 3 mps 759 mmHg 51%
    15:00 +28°C° 0 mm 3 mps 759 mmHg 51%
    16:00 +28°C° 0 mm 3 mps 759 mmHg 50%
    17:00 +27°C° 0 mm 3 mps 759 mmHg 55%
    18:00 +26°C° 0 mm 2 mps 758 mmHg 59%
    19:00 +25°C° 0 mm 1 mps 758 mmHg 64%
    20:00 +24°C° 0 mm 1 mps 758 mmHg 65%
    21:00 +22°C° 0 mm 1 mps 758 mmHg 66%
    22:00 +20°C° 0 mm 1 mps 758 mmHg 67%
    23:00 +20°C° 0 mm 1 mps 758 mmHg 68%

    10 June, Wednesday

    Time Temperature Precipitation Wind Pressure Humidity
    00:00 +20°C° 0 mm 1 mps 758 mmHg 68%
    01:00 +18°C° 0 mm 2 mps 758 mmHg 68%
    02:00 +18°C° 0 mm 2 mps 759 mmHg 70%
    03:00 +18°C° 0 mm 2 mps 759 mmHg 72%
    04:00 +19°C° 0 mm 2 mps 759 mmHg 74%
    05:00 +19°C° 0 mm 2 mps 759 mmHg 76%
    06:00 +19°C° 0 mm 2 mps 759 mmHg 78%
    07:00 +20°C° 0 mm 2 mps 759 mmHg 79%
    08:00 +23°C° 0 mm 2 mps 759 mmHg 75%
    09:00 +24°C° 0 mm 2 mps 758 mmHg 70%
    10:00 +26°C° 0 mm 2 mps 758 mmHg 65%
    11:00 +27°C° 0 mm 3 mps 758 mmHg 59%
    12:00 +28°C° 0 mm 3 mps 758 mmHg 54%
    13:00 +29°C° 0 mm 3 mps 758 mmHg 49%
    14:00 +29°C° 0 mm 3 mps 758 mmHg 50%
    15:00 +29°C° 0 mm 4 mps 757 mmHg 50%
    16:00 +29°C° 0 mm 4 mps 757 mmHg 51%
    17:00 +28°C° 0 mm 3 mps 757 mmHg 57%
    18:00 +27°C° 0 mm 3 mps 757 mmHg 63%
    19:00 +26°C° 0 mm 2 mps 757 mmHg 69%
    20:00 +25°C° 0.1 mm 2 mps 757 mmHg 72%
    21:00 +23°C° 0.1 mm 2 mps 756 mmHg 75%
    22:00 +21°C° 0.1 mm 2 mps 756 mmHg 78%
    23:00 +20°C° 0.2 mm 2 mps 756 mmHg 80%

    11 June, Thursday

    Time Temperature Precipitation Wind Pressure Humidity
    00:00 +19°C° 0.2 mm 2 mps 756 mmHg 82%
    01:00 +18°C° 0.2 mm 2 mps 756 mmHg 84%
    02:00 +18°C° 0.7 mm 2 mps 756 mmHg 86%
    03:00 +18°C° 0.7 mm 2 mps 756 mmHg 88%
    04:00 +17°C° 0.7 mm 3 mps 755 mmHg 90%
    05:00 +18°C° 0.1 mm 3 mps 755 mmHg 89%
    06:00 +19°C° 0.1 mm 3 mps 755 mmHg 88%
    07:00 +19°C° 0.1 mm 3 mps 755 mmHg 86%
    08:00 +20°C° 0 mm 3 mps 755 mmHg 86%
    09:00 +20°C° 0 mm 3 mps 754 mmHg 86%
    10:00 +20°C° 0 mm 3 mps 754 mmHg 86%
    11:00 +22°C° 0 mm 3 mps 754 mmHg 78%
    12:00 +25°C° 0 mm 3 mps 754 mmHg 70%
    13:00 +27°C° 0 mm 3 mps 754 mmHg 63%
    14:00 +27°C° 0 mm 4 mps 754 mmHg 63%
    15:00 +28°C° 0 mm 4 mps 753 mmHg 63%
    16:00 +28°C° 0 mm 4 mps 753 mmHg 63%
    17:00 +28°C° 0 mm 3 mps 753 mmHg 67%
    18:00 +27°C° 0 mm 3 mps 752 mmHg 71%
    19:00 +27°C° 0 mm 2 mps 752 mmHg 76%
    20:00 +25°C° 0.2 mm 2 mps 752 mmHg 80%
    21:00 +24°C° 0.2 mm 2 mps 752 mmHg 85%
    22:00 +21°C° 0.2 mm 2 mps 752 mmHg 90%
    23:00 +21°C° 0 mm 2 mps 752 mmHg 90%
    Show more